Weather History for KAJZ - September, 2012

Change the Weather History Date:

Tuesday, September 18, 2012

  Actual Average (KMTJ) Record (KMTJ)
Temperature  
Mean Temperature 66 °F 61 °F  
Max Temperature 85 °F 77 °F 90 °F (2010)
Min Temperature 47 °F 46 °F 32 °F (2003)
Degree Days  
Heating Degree Days 0 4  
Month to date heating degree days 42  
Since 1 July heating degree days 47  
Cooling Degree Days 1 1  
Month to date cooling degree days 33  
Year to date cooling degree days 638  
Growing Degree Days 16 (Base 50)    
Moisture  
Dew Point 27 °F    
Average Humidity 29    
Maximum Humidity 54    
Minimum Humidity 8    
Precipitation  
Precipitation 0.00 in 0.06 in 0.48 in (2000)
Month to date precipitation 0.74  
Year to date precipitation 8.07  
Sea Level Pressure  
Sea Level Pressure 30.22 in    
Wind  
Wind Speed 5 mph ()    
Max Wind Speed 13 mph    
Max Gust Speed 21 mph    
Visibility 10.0 miles    
Events      
T = Trace of Precipitation, MM = Missing Value Source: Averaged Metar Reports

Daily Weather History Graph

Daily Weather History Graph

Search for Another Location

Airport or City:

Trip Planner

Search our weather history database for the weather conditions in past years. The results will help you decide how hot, cold, wet, or windy it might be!

Date:

Astronomy

Sep. 18, 2012 Rise Set
Actual Time 6:56 AM MDT 7:14 PM MDT
Civil Twilight 6:30 AM MDT 7:41 PM MDT
Nautical Twilight 5:59 AM MDT 8:12 PM MDT
Astronomical Twilight 5:27 AM MDT 8:44 PM MDT
Moon 9:57 AM MDT (9/18) 8:42 PM MDT (9/18)
Length of Visible Light 13h 11m
Length of Day
12h 17m
Waxing Crescent, 9% of the Moon is Illuminated
Sep 18
Waxing Crescent
Sep 22
First Quarter
Sep 29
Full
Oct 8
Last Quarter
Oct 15
New

Hourly Weather History & Observations

Time (MDT) Temp. Dew Point Humidity Pressure Visibility Wind Dir Wind Speed Gust Speed Precip Events Conditions
12:15 AM 54.7 °F 30.9 °F 40% 30.19 in 10.0 mi ENE 5.8 mph - N/A   Unknown
12:35 AM 55.2 °F 30.7 °F 39% 30.20 in 10.0 mi NE 3.5 mph - N/A   Unknown
12:55 AM 53.4 °F 32.7 °F 45% 30.20 in 10.0 mi NNE 5.8 mph - N/A   Unknown
1:15 AM 54.0 °F 32.2 °F 44% 30.21 in 10.0 mi ENE 4.6 mph - N/A   Unknown
1:35 AM 53.6 °F 32.4 °F 44% 30.21 in 10.0 mi ENE 3.5 mph - N/A   Unknown
1:55 AM 54.3 °F 32.0 °F 43% 30.22 in 10.0 mi East 3.5 mph - N/A   Unknown
2:15 AM 52.9 °F 31.1 °F 43% 30.22 in 10.0 mi ENE 5.8 mph - N/A   Unknown
2:35 AM 51.3 °F 32.2 °F 48% 30.22 in 10.0 mi NE 6.9 mph - N/A   Unknown
2:55 AM 53.2 °F 31.1 °F 43% 30.23 in 10.0 mi ESE 3.5 mph - N/A   Unknown
3:15 AM 51.6 °F 31.6 °F 46% 30.23 in 10.0 mi Calm Calm - N/A   Unknown
3:35 AM 49.3 °F 31.5 °F 50% 30.23 in 10.0 mi Calm Calm - N/A   Unknown
3:55 AM 48.6 °F 32.0 °F 53% 30.23 in 10.0 mi East 4.6 mph - N/A   Unknown
4:15 AM 49.3 °F 31.8 °F 51% 30.24 in 10.0 mi ENE 5.8 mph - N/A   Unknown
4:35 AM 48.2 °F 31.1 °F 52% 30.24 in 10.0 mi ENE 4.6 mph - N/A   Unknown
4:55 AM 48.7 °F 31.1 °F 51% 30.25 in 10.0 mi ENE 3.5 mph - N/A   Unknown
5:15 AM 48.4 °F 30.6 °F 50% 30.26 in 10.0 mi ENE 8.1 mph - N/A   Unknown
5:35 AM 49.1 °F 31.6 °F 51% 30.26 in 10.0 mi ENE 8.1 mph - N/A   Unknown
5:55 AM 48.6 °F 32.0 °F 53% 30.27 in 10.0 mi NE 8.1 mph - N/A   Unknown
6:15 AM 47.1 °F 30.9 °F 53% 30.27 in 10.0 mi NE 6.9 mph - N/A   Unknown
6:35 AM 47.3 °F 31.1 °F 53% 30.27 in 10.0 mi ENE 6.9 mph - N/A   Unknown
6:55 AM 47.3 °F 31.5 °F 54% 30.28 in 10.0 mi East 5.8 mph - N/A   Unknown
7:35 AM 48.2 °F 30.9 °F 51% 30.30 in 10.0 mi NE 6.9 mph - N/A   Unknown
7:55 AM 50.7 °F 31.5 °F 48% 30.30 in 10.0 mi ENE 8.1 mph - N/A   Unknown
8:15 AM 52.2 °F 31.1 °F 45% 30.30 in 10.0 mi ENE 6.9 mph - N/A   Unknown
8:35 AM 53.4 °F 31.1 °F 43% 30.31 in 10.0 mi ENE 3.5 mph - N/A   Unknown
8:55 AM 55.4 °F 31.5 °F 40% 30.31 in 10.0 mi East 5.8 mph - N/A   Unknown
9:15 AM 56.7 °F 32.0 °F 39% 30.31 in 10.0 mi Calm Calm - N/A   Unknown
9:35 AM 57.6 °F 32.0 °F 38% 30.31 in 10.0 mi Calm Calm - N/A   Unknown
9:55 AM 59.4 °F 31.6 °F 35% 30.31 in 10.0 mi Calm Calm - N/A   Unknown
10:15 AM 61.3 °F 32.0 °F 33% 30.31 in 10.0 mi Calm Calm - N/A   Unknown
10:35 AM 63.5 °F 32.0 °F 31% 30.30 in 10.0 mi Calm Calm - N/A   Unknown
10:55 AM 65.7 °F 31.5 °F 28% 30.30 in 10.0 mi Calm Calm - N/A   Unknown
11:15 AM 66.7 °F 31.8 °F 27% 30.29 in 10.0 mi Calm Calm - N/A   Unknown
11:35 AM 69.4 °F 31.8 °F 25% 30.28 in 10.0 mi Calm Calm - N/A   Unknown
11:55 AM 72.3 °F 29.5 °F 20% 30.27 in 10.0 mi Calm Calm - N/A   Unknown
12:15 PM 73.9 °F 27.1 °F 18% 30.27 in 10.0 mi Calm Calm - N/A   Unknown
12:35 PM 76.3 °F 25.7 °F 15% 30.26 in 10.0 mi ESE 3.5 mph - N/A   Unknown
1:15 PM 78.1 °F 27.1 °F 15% 30.25 in 10.0 mi SE 3.5 mph - N/A   Unknown
1:35 PM 78.8 °F 30.7 °F 17% 30.23 in 10.0 mi Calm Calm - N/A   Unknown
1:55 PM 79.5 °F 28.6 °F 16% 30.22 in 10.0 mi SW 6.9 mph - N/A   Unknown
2:15 PM 81.3 °F 27.3 °F 14% 30.21 in 10.0 mi SW 6.9 mph - N/A   Unknown
2:35 PM 83.3 °F 26.2 °F 12% 30.19 in 10.0 mi SW 5.8 mph - N/A   Unknown
2:55 PM 83.8 °F 26.6 °F 12% 30.19 in 10.0 mi SSW 5.8 mph - N/A   Unknown
3:15 PM 85.1 °F 20.8 °F 9% 30.18 in 10.0 mi West 6.9 mph 10.4 mph N/A   Unknown
3:35 PM 85.3 °F 21.0 °F 9% 30.17 in 10.0 mi SW 4.6 mph 20.7 mph N/A   Unknown
3:55 PM 85.1 °F 20.7 °F 9% 30.17 in 10.0 mi West 6.9 mph 17.3 mph N/A   Unknown
4:15 PM 84.9 °F 20.8 °F 9% 30.16 in 10.0 mi West 12.7 mph - N/A   Unknown
4:35 PM 85.8 °F 20.3 °F 9% 30.15 in 10.0 mi West 10.4 mph 18.4 mph N/A   Unknown
4:55 PM 85.8 °F 19.2 °F 9% 30.15 in 10.0 mi WNW 11.5 mph - N/A   Unknown
5:15 PM 85.1 °F 19.0 °F 9% 30.15 in 10.0 mi NW 12.7 mph 19.6 mph N/A   Unknown
5:35 PM 85.1 °F 18.3 °F 8% 30.15 in 10.0 mi WNW 12.7 mph - N/A   Unknown
5:55 PM 84.6 °F 16.7 °F 8% 30.15 in 10.0 mi WNW 9.2 mph 18.4 mph N/A   Unknown
6:15 PM 84.2 °F 15.6 °F 8% 30.15 in 10.0 mi WNW 10.4 mph 19.6 mph N/A   Unknown
6:35 PM 83.3 °F 14.9 °F 8% 30.15 in 10.0 mi WNW 11.5 mph - N/A   Unknown
6:55 PM 82.0 °F 14.2 °F 8% 30.15 in 10.0 mi WNW 10.4 mph - N/A   Unknown
7:15 PM 80.6 °F 13.1 °F 8% 30.15 in 10.0 mi NW 9.2 mph - N/A   Unknown
7:35 PM 79.5 °F 11.7 °F 8% 30.15 in 10.0 mi WNW 6.9 mph - N/A   Unknown
7:55 PM 76.1 °F 15.6 °F 10% 30.15 in 10.0 mi SSE 3.5 mph - N/A   Unknown
8:15 PM 71.1 °F 20.3 °F 15% 30.16 in 10.0 mi SSE 4.6 mph - N/A   Unknown
8:35 PM 69.8 °F 21.9 °F 16% 30.17 in 10.0 mi Calm Calm - N/A   Unknown
8:55 PM 70.5 °F 21.7 °F 16% 30.18 in 10.0 mi Calm Calm - N/A   Unknown
9:15 PM 67.6 °F 22.1 °F 18% 30.19 in 10.0 mi Calm Calm - N/A   Unknown
9:35 PM 61.5 °F 27.9 °F 28% 30.19 in 10.0 mi ENE 4.6 mph - N/A   Unknown
9:55 PM 61.9 °F 23.9 °F 23% 30.19 in 10.0 mi East 5.8 mph - N/A   Unknown
10:15 PM 59.5 °F 23.4 °F 25% 30.20 in 10.0 mi ENE 5.8 mph - N/A   Unknown
10:35 PM 58.8 °F 25.3 °F 28% 30.21 in 10.0 mi NE 4.6 mph - N/A   Unknown
10:55 PM 57.4 °F 27.5 °F 32% 30.21 in 10.0 mi ENE 5.8 mph - N/A   Unknown
11:15 PM 58.3 °F 26.4 °F 30% 30.21 in 10.0 mi ENE 3.5 mph - N/A   Unknown
11:35 PM 57.4 °F 25.0 °F 29% 30.22 in 10.0 mi ENE 5.8 mph - N/A   Unknown
11:55 PM 57.0 °F 25.9 °F 30% 30.22 in 10.0 mi East 4.6 mph - N/A   Unknown